Location: Newark
(30.3239°N, 81.6375°W)
Time: 04:30:58
(UTC+00:00)

Hubble Space Telescope - Visible Passes

Search period start: 23 January 2020 00:00
Search period end: 02 February 2020 00:00
Orbit: 536 x 540 km, 28.5° (Epoch: 22 January)

Date Brightness Start Highest point End Pass type
(mag) Time Alt. Az. Time Alt. Az. Time Alt. Az.
27 Jan 3.7 10:51:31 10° S 10:52:42 11° SSE 10:53:53 10° SE visible
28 Jan 3.4 10:39:44 10° S 10:41:59 14° SSE 10:44:15 10° ESE visible
29 Jan 3.0 10:29:39 15° S 10:31:17 18° SSE 10:34:08 10° ESE visible
30 Jan 2.7 10:20:06 22° S 10:20:35 22° SSE 10:23:50 10° ESE visible
31 Jan 2.6 10:10:25 26° SSE 10:10:25 26° SSE 10:13:25 10° ESE visible
31 Jan 1.2 11:46:46 10° WSW 11:50:50 59° S 11:54:53 10° E visible
01 Feb 2.8 10:00:39 25° SE 10:00:39 25° SE 10:02:56 10° E visible
01 Feb 1.1 11:36:07 10° WSW 11:40:12 64° S 11:44:18 10° E visible
